DateTimeUTC,F1_A11,F1_S11,BsB_S11,BsG_S11,BsR_S11,BbsB_S11,BbsG_S11,BbsR_S11,BaB_A11,BaG_A11,BaR_A11,Tu_S11,T_S11,Uu_S11,U_S11,P_S11,T1_A11
2021-09-20T09:00:00Z,00000200,21000000,,,,,,,-000.10,0000.52,0000.23,17.8,25.3,,00.0,0655.9,30.9
2021-09-20T09:01:00Z,00000200,21000000,,,,,,,0000.20,-000.06,-000.15,17.8,25.3,,00.0,0655.9,30.9
2021-09-20T09:02:00Z,00000200,21000000,,,,,,,0000.45,0000.50,0000.29,17.8,25.3,,00.0,0655.9,31.0
2021-09-20T09:03:00Z,00000200,61000000,,,,,,,0000.01,0000.31,0000.18,17.8,25.3,,00.0,0655.9,31.0
2021-09-20T09:04:00Z,00000200,41000000,-000.64,0000.25,0000.13,0000.21,-000.17,0000.09,0000.18,-000.27,0000.08,18.3,25.2,,00.0,0656.8,31.0
2021-09-20T09:05:00Z,00000200,01000000,0000.30,0000.05,0000.27,-000.10,-000.03,-000.07,0000.21,0000.51,0000.18,18.4,25.2,,00.0,0656.9,31.0
2021-09-20T09:06:00Z,00000200,01000000,0000.56,0000.19,0000.11,0000.94,0000.14,0000.32,0000.51,0000.26,0000.21,18.4,25.2,,00.0,0656.9,31.0
2021-09-20T09:07:00Z,00000200,01000000,-000.18,0000.33,0000.17,0000.28,0000.02,-000.10,0000.15,-000.27,0000.18,18.4,25.2,,00.0,0656.9,31.0
2021-09-20T09:08:00Z,00000200,01000000,-000.45,-000.09,-000.07,0000.14,-000.06,-000.32,-000.53,0000.11,-000.33,18.4,25.1,,00.0,0656.9,31.0
2021-09-20T09:09:00Z,00000200,01000000,0000.55,0000.22,-000.05,-000.39,0000.05,-000.03,0000.12,0000.44,0000.11,18.3,25.1,,00.0,0656.9,31.0
2021-09-20T09:10:00Z,00000200,01000000,0003.42,0003.59,0003.16,0000.71,0000.85,0000.54,0016.26,0014.18,0011.69,18.2,25.0,00.1,00.1,0657.5,31.0
2021-09-20T09:11:00Z,00000200,01000000,0002.42,0002.48,0002.93,0000.54,0000.16,0000.54,0004.52,0004.05,0003.66,18.1,25.0,00.1,00.0,0657.6,31.0
2021-09-20T09:12:00Z,00000200,01000000,0001.28,0001.33,0001.35,0000.59,0000.24,-000.08,-003.98,-003.09,-002.34,18.0,24.9,00.0,00.0,0657.6,30.9
2021-09-20T09:13:00Z,00000200,01000000,0000.72,0001.27,0001.02,0000.60,0000.52,-000.09,0001.97,0001.85,0001.75,18.0,24.9,,00.0,0657.6,30.9
2021-09-20T09:14:00Z,00000200,01000000,0001.19,0000.69,0000.96,-000.01,-000.08,0000.03,-002.52,-002.24,-001.55,17.9,24.9,,00.0,0657.6,30.9
2021-09-20T09:15:00Z,00000200,01000000,0001.06,0001.19,0000.98,0000.33,0000.27,0000.00,0002.24,0002.02,0001.79,18.0,24.9,,00.0,0657.6,30.9
2021-09-20T09:16:00Z,00000200,01000000,0000.94,0000.63,0000.69,0000.43,-000.04,0000.34,-001.66,-000.93,-000.65,18.0,24.9,,00.0,0657.6,30.9
2021-09-20T09:17:00Z,00000200,01000000,0000.27,0000.62,0000.47,0000.36,0000.25,0000.03,0001.01,0000.35,0000.56,18.1,24.9,,00.0,0657.6,31.0
2021-09-20T09:18:00Z,00000200,01000000,0000.31,0000.57,0000.55,0000.32,-000.12,-000.17,0001.56,0001.58,0001.38,18.2,24.9,,00.0,0657.6,31.0
2021-09-20T09:19:00Z,00000200,01000000,0000.47,0000.71,0000.47,-000.34,-000.10,0000.16,0000.49,0000.32,0000.12,18.3,25.0,,00.0,0657.6,31.0
2021-09-20T09:20:00Z,00000200,01000000,0000.53,0000.53,0000.46,-000.84,0000.08,0000.13,-000.35,-000.03,0000.22,18.4,25.0,,00.0,0657.6,31.0
2021-09-20T09:21:00Z,00000200,01000000,0000.11,0000.73,0000.07,0000.13,0000.34,-000.08,0000.46,0000.29,0000.14,18.4,25.1,,00.0,0657.6,31.0
2021-09-20T09:22:00Z,00000200,01000000,0000.61,0000.22,0000.33,0000.13,0000.07,-000.18,-000.43,-000.09,-000.02,18.4,25.0,,00.0,0657.6,31.0
2021-09-20T09:23:00Z,00000200,01000000,0000.74,0000.14,0000.19,0000.12,0000.39,-000.16,0000.66,0000.72,0000.30,18.3,25.0,,00.0,0657.7,31.0
2021-09-20T09:24:00Z,00000200,01000000,0000.07,0000.45,0000.19,0000.34,-000.22,0000.13,-000.02,-000.06,-000.23,18.3,25.0,,00.0,0657.7,31.0
2021-09-20T09:25:00Z,00000200,01000000,0000.76,0000.46,0000.14,0000.54,-000.04,-000.07,0000.49,-000.08,0000.42,18.2,24.9,,00.0,0657.6,31.0
2021-09-20T09:26:00Z,00000200,01000000,0000.59,0000.26,0000.19,-000.04,-000.18,0000.01,0000.40,0000.59,0000.01,18.1,24.9,,00.0,0657.6,30.9
2021-09-20T09:27:00Z,00000200,01000000,0000.52,0000.56,0000.21,-000.11,-000.16,0000.14,0000.51,0000.24,0000.53,18.0,24.8,,00.0,0657.6,30.9
2021-09-20T09:28:00Z,00000200,01000000,0000.69,0000.00,0000.57,-000.21,0000.00,-000.17,-000.38,-000.34,-000.05,18.0,24.8,,00.0,0657.6,30.9
2021-09-20T09:29:00Z,00000200,01000000,0000.61,0000.01,0000.10,-000.11,0000.08,-000.11,0000.04,0000.09,0000.07,17.9,24.8,,00.0,0657.6,30.9
2021-09-20T09:30:00Z,00000200,01000000,0000.28,0000.51,-000.14,-000.11,0000.22,-000.40,0000.48,0000.47,0000.52,17.9,24.7,,00.0,0657.6,30.9
2021-09-20T09:31:00Z,00000200,01000000,0000.55,0000.33,0000.29,-000.09,-000.11,-000.04,0000.61,0000.37,0000.05,17.9,24.7,,00.0,0657.6,30.9
2021-09-20T09:32:00Z,00000200,01000000,0000.64,0000.49,0000.42,-000.33,0000.22,-000.21,-000.60,0000.12,-000.20,18.0,24.8,,00.0,0657.6,30.9
2021-09-20T09:33:00Z,00000200,01000000,0000.16,0000.41,0000.04,0000.50,0000.11,-000.06,-000.57,-000.82,-000.44,18.1,24.8,,00.0,0657.6,31.0
2021-09-20T09:34:00Z,00000200,01000000,-000.33,0000.48,0000.12,0000.83,0000.27,-000.07,-000.02,0000.03,0000.16,18.1,24.9,,00.0,0657.6,31.0
2021-09-20T09:35:00Z,00000200,01000000,-000.10,0000.47,0000.32,-000.20,0000.07,-000.10,0000.13,0000.10,-000.02,18.2,24.9,,00.0,0657.6,31.0
2021-09-20T09:36:00Z,00000200,01000000,0000.44,0000.25,0000.74,-000.04,-000.09,0000.10,-000.21,-000.37,-000.17,18.1,24.9,,00.0,0657.6,30.9
2021-09-20T09:37:00Z,00000200,01000000,-000.16,0000.29,-000.03,-000.68,-000.05,-000.05,0000.17,0000.29,0000.22,18.0,24.8,,00.0,0657.6,30.9
2021-09-20T09:38:00Z,00000200,01000000,0000.71,0000.19,-000.04,-000.32,-000.08,-000.23,-000.46,-000.30,-000.11,18.0,24.8,,00.0,0657.6,30.9
2021-09-20T09:39:00Z,00000200,01000000,0000.29,0000.09,0000.09,-000.13,0000.32,-000.28,0000.29,-000.11,-000.14,17.9,24.7,,00.0,0657.6,30.9
2021-09-20T09:40:00Z,00000200,01000000,0000.30,0000.21,0000.27,0000.58,0000.21,0000.04,-000.06,0000.43,-000.02,17.9,24.7,,00.0,0657.6,30.9
2021-09-20T09:41:00Z,00000200,01000000,0000.71,0000.03,-000.48,-000.06,-000.06,0000.16,0000.64,0000.52,0000.54,17.8,24.7,,00.0,0657.6,30.9
2021-09-20T09:42:00Z,00000200,01000000,0000.65,0000.43,-000.02,-000.54,-000.12,-000.07,0000.69,0000.37,0000.45,17.8,24.6,,00.0,0657.6,30.9
2021-09-20T09:43:00Z,00000200,01000000,0000.44,0000.11,0000.51,0000.46,-000.09,0000.21,0000.06,-000.08,0000.08,17.7,24.6,,00.0,0657.6,30.9
2021-09-20T09:44:00Z,00000200,01000000,0000.81,0000.68,0000.04,-000.20,0000.02,-000.01,0000.03,-000.06,-000.05,17.7,24.6,,00.0,0657.6,30.9
2021-09-20T09:45:00Z,00000200,01000000,-000.48,0000.48,0000.30,0000.35,0000.17,-000.15,0000.33,0000.78,0000.09,17.7,24.5,,00.0,0657.6,30.9
2021-09-20T09:46:00Z,00000200,01000000,-000.03,0000.11,-000.10,0000.14,0000.02,0000.16,0000.70,0000.37,0001.06,17.7,24.5,,00.0,0657.6,30.9
2021-09-20T09:47:00Z,00000200,01000000,0000.03,-000.17,0000.26,0000.31,0000.32,-000.02,0001.02,0001.18,0000.39,17.8,24.6,,00.0,0657.6,30.9
2021-09-20T09:48:00Z,00000200,01000000,0001.54,0001.43,0000.29,-000.21,0000.08,0000.22,0001.41,0001.34,0001.08,17.9,24.6,,00.0,0657.6,30.9
2021-09-20T09:49:00Z,00000200,01000000,0001.28,0001.43,0000.64,0000.50,0000.16,0000.18,0001.88,0001.71,0001.22,18.0,24.7,,00.0,0657.6,31.0
2021-09-20T09:50:00Z,00000200,01000000,0000.55,0000.79,0000.02,0000.51,0000.04,0000.01,0001.29,0000.97,0001.08,18.1,24.7,,00.0,0657.6,31.0
2021-09-20T09:51:00Z,00000200,01000000,0000.72,0000.51,0000.13,0000.04,0000.01,-000.12,0000.13,-000.04,-000.32,18.1,24.7,,00.0,0657.6,31.0
2021-09-20T09:52:00Z,00000200,01000000,0000.88,0000.67,0000.22,0000.02,0000.01,0000.03,-000.02,0000.22,0000.62,18.2,24.8,,00.0,0657.6,31.0
2021-09-20T09:53:00Z,00000200,01000000,0000.79,0001.17,0000.61,-000.51,0000.02,-000.40,0000.96,0000.50,0000.33,18.2,24.8,,00.0,0657.6,31.0
2021-09-20T09:54:00Z,00000200,01000000,0000.99,0000.44,0000.40,0000.36,0000.27,-000.28,0000.48,0000.76,0000.47,18.1,24.8,,00.0,0657.6,31.0
2021-09-20T09:55:00Z,00000200,01000000,0000.64,0000.01,0000.29,0000.32,-000.24,0000.01,-000.29,-000.19,-000.49,18.1,24.7,,00.0,0657.6,31.0
2021-09-20T09:56:00Z,00000200,01000000,-000.32,0000.12,0000.26,-000.43,0000.24,-000.19,0000.05,-000.20,0000.03,18.0,24.7,,00.0,0657.6,30.9
2021-09-20T09:57:00Z,00000200,41000000,,,,,,,-001.75,-001.24,-000.88,18.0,24.7,,00.0,0657.6,30.9
2021-09-20T09:58:00Z,00000200,61000000,,,,,,,0000.52,0000.56,0000.34,17.6,24.8,,00.0,0656.6,30.9
2021-09-20T09:59:00Z,00000200,21000000,,,,,,,0000.61,0000.32,0000.37,17.5,24.9,,00.0,0656.5,30.9
